Time,TemperatureF,DewpointF,PressureIn,WindDirection,WindDirectionDegrees,WindSpeedMPH,WindSpeedGustMPH,Humidity,HourlyPrecipIn,Conditions,Clouds,dailyrainin,SoftwareType,DateUTC
2013-05-17 00:00:00,54.7,45.3,29.92,SSW,203,0.0,0.0,71,0.00,,,0.00,WSDL version 430,2013-05-17 07:00:00,
2013-05-17 00:05:00,54.5,45.5,29.92,SSW,203,0.0,0.0,72,0.00,,,0.00,WSDL version 430,2013-05-17 07:05:00,
2013-05-17 00:10:00,54.5,45.9,29.92,SSW,203,0.0,0.0,73,0.00,,,0.00,WSDL version 430,2013-05-17 07:10:00,
2013-05-17 00:15:00,54.5,45.8,29.92,SSW,203,0.0,0.0,72,0.00,,,0.00,WSDL version 430,2013-05-17 07:15:00,
2013-05-17 00:20:00,54.5,45.7,29.92,SSW,203,0.0,0.0,72,0.00,,,0.00,WSDL version 430,2013-05-17 07:20:00,
2013-05-17 00:25:00,54.5,45.7,29.92,SSW,203,0.0,0.0,72,0.00,,,0.00,WSDL version 430,2013-05-17 07:25:00,
2013-05-17 00:30:00,54.4,45.5,29.92,SSW,203,0.0,0.0,72,0.00,,,0.00,WSDL version 430,2013-05-17 07:30:00,
2013-05-17 00:35:00,54.3,45.5,29.92,SSW,203,0.0,0.0,72,0.00,,,0.00,WSDL version 430,2013-05-17 07:35:00,
2013-05-17 00:40:00,54.1,45.3,29.92,SSW,203,0.0,0.0,72,0.00,,,0.00,WSDL version 430,2013-05-17 07:40:00,
2013-05-17 00:45:00,54.1,45.3,29.92,SSW,203,0.0,0.0,72,0.00,,,0.00,WSDL version 430,2013-05-17 07:45:00,
2013-05-17 00:50:00,54.0,45.2,29.92,SSW,203,0.0,0.0,72,0.00,,,0.00,WSDL version 430,2013-05-17 07:50:00,
2013-05-17 00:55:00,53.9,45.1,29.92,SSW,203,0.0,0.0,72,0.00,,,0.00,WSDL version 430,2013-05-17 07:55:00,
2013-05-17 01:00:00,53.8,45.0,29.92,SSW,203,0.0,0.0,72,0.00,,,0.00,WSDL version 430,2013-05-17 08:00:00,
2013-05-17 01:05:00,53.8,45.0,29.92,SSW,203,0.0,0.0,72,0.00,,,0.00,WSDL version 430,2013-05-17 08:05:00,
2013-05-17 01:10:00,53.6,44.8,29.91,SSW,203,0.0,0.0,72,0.00,,,0.00,WSDL version 430,2013-05-17 08:10:00,
2013-05-17 01:15:00,53.6,44.8,29.91,SSW,203,0.0,0.0,73,0.00,,,0.00,WSDL version 430,2013-05-17 08:15:00,
2013-05-17 01:20:00,53.4,45.0,29.91,SSW,203,0.0,0.0,73,0.00,,,0.00,WSDL version 430,2013-05-17 08:20:00,
2013-05-17 01:25:00,53.4,45.0,29.91,SSW,203,0.0,0.0,73,0.00,,,0.00,WSDL version 430,2013-05-17 08:25:00,
2013-05-17 01:30:00,53.4,45.0,29.91,SSW,203,0.0,0.0,73,0.00,,,0.00,WSDL version 430,2013-05-17 08:30:00,
2013-05-17 01:35:00,53.4,45.0,29.92,SSW,203,0.0,0.0,73,0.00,,,0.00,WSDL version 430,2013-05-17 08:35:00,
2013-05-17 01:40:00,53.2,44.8,29.92,SSW,203,0.0,0.0,73,0.00,,,0.00,WSDL version 430,2013-05-17 08:40:00,
2013-05-17 01:45:00,53.2,44.8,29.91,SSW,203,0.0,0.0,73,0.00,,,0.00,WSDL version 430,2013-05-17 08:45:00,
2013-05-17 01:50:00,53.1,44.5,29.92,SSW,203,0.0,0.0,72,0.00,,,0.00,WSDL version 430,2013-05-17 08:50:00,
2013-05-17 01:55:00,53.1,44.4,29.91,SSW,203,0.0,0.0,73,0.00,,,0.00,WSDL version 430,2013-05-17 08:55:00,
2013-05-17 02:00:00,53.1,44.3,29.91,SSW,203,0.0,0.0,72,0.00,,,0.00,WSDL version 430,2013-05-17 09:00:00,
2013-05-17 02:05:00,52.9,44.1,29.91,SSW,203,0.0,0.0,72,0.00,,,0.00,WSDL version 430,2013-05-17 09:05:00,
2013-05-17 02:10:00,52.8,44.0,29.91,SSW,203,0.0,0.0,72,0.00,,,0.00,WSDL version 430,2013-05-17 09:10:00,
2013-05-17 02:15:00,52.7,43.9,29.91,SSW,203,0.0,0.0,72,0.00,,,0.00,WSDL version 430,2013-05-17 09:15:00,
2013-05-17 02:20:00,52.5,44.2,29.91,SSW,203,0.0,0.0,74,0.00,,,0.00,WSDL version 430,2013-05-17 09:20:00,
2013-05-17 02:25:00,52.5,44.2,29.91,SSW,203,0.0,0.0,73,0.00,,,0.00,WSDL version 430,2013-05-17 09:25:00,
2013-05-17 02:30:00,52.3,43.7,29.91,SSW,203,0.0,0.0,72,0.00,,,0.00,WSDL version 430,2013-05-17 09:30:00,
2013-05-17 02:35:00,52.1,43.4,29.91,SSW,203,0.0,0.0,72,0.00,,,0.00,WSDL version 430,2013-05-17 09:35:00,
2013-05-17 02:40:00,52.0,43.6,29.91,SSW,203,0.0,0.0,73,0.00,,,0.00,WSDL version 430,2013-05-17 09:40:00,
2013-05-17 02:45:00,51.8,43.5,29.91,SSW,203,0.0,0.0,73,0.00,,,0.00,WSDL version 430,2013-05-17 09:45:00,
2013-05-17 02:50:00,51.7,43.3,29.91,SSW,203,0.0,0.0,73,0.00,,,0.00,WSDL version 430,2013-05-17 09:50:00,
2013-05-17 02:55:00,51.6,43.6,29.91,SSW,203,0.0,0.0,74,0.00,,,0.00,WSDL version 430,2013-05-17 09:55:00,
2013-05-17 03:00:00,51.6,43.7,29.91,SSW,203,0.0,0.0,75,0.00,,,0.00,WSDL version 430,2013-05-17 10:00:00,
2013-05-17 03:05:00,51.4,43.9,29.90,SSW,203,0.0,0.0,75,0.00,,,0.00,WSDL version 430,2013-05-17 10:05:00,
2013-05-17 03:10:00,51.4,44.1,29.90,SSW,203,0.0,0.0,76,0.00,,,0.00,WSDL version 430,2013-05-17 10:10:00,
2013-05-17 03:15:00,51.3,44.0,29.90,SSW,203,0.0,0.0,76,0.00,,,0.00,WSDL version 430,2013-05-17 10:15:00,
2013-05-17 03:20:00,51.3,44.2,29.89,SSW,203,0.0,0.0,77,0.00,,,0.00,WSDL version 430,2013-05-17 10:20:00,
2013-05-17 03:25:00,51.3,44.3,29.90,SSW,203,0.0,0.0,77,0.00,,,0.00,WSDL version 430,2013-05-17 10:25:00,
2013-05-17 03:30:00,51.2,43.9,29.90,SSW,203,0.0,0.0,76,0.00,,,0.00,WSDL version 430,2013-05-17 10:30:00,
2013-05-17 03:35:00,50.9,43.3,29.90,SSW,203,0.0,0.0,75,0.00,,,0.00,WSDL version 430,2013-05-17 10:35:00,
2013-05-17 03:40:00,50.8,43.2,29.90,SSW,203,0.0,0.0,75,0.00,,,0.00,WSDL version 430,2013-05-17 10:40:00,
2013-05-17 03:45:00,50.6,43.0,29.90,SSW,203,0.0,0.0,75,0.00,,,0.00,WSDL version 430,2013-05-17 10:45:00,
2013-05-17 03:50:00,50.7,43.4,29.90,SSW,203,0.0,0.0,76,0.00,,,0.00,WSDL version 430,2013-05-17 10:50:00,
2013-05-17 03:55:00,50.7,43.9,29.90,SSW,203,0.0,0.0,78,0.00,,,0.00,WSDL version 430,2013-05-17 10:55:00,
2013-05-17 04:00:00,50.7,44.5,29.90,SSW,203,0.0,0.0,79,0.00,,,0.00,WSDL version 430,2013-05-17 11:00:00,
2013-05-17 04:05:00,50.8,44.9,29.90,SSW,203,0.0,0.0,80,0.00,,,0.00,WSDL version 430,2013-05-17 11:05:00,
2013-05-17 04:10:00,50.9,44.9,29.90,SSW,203,0.0,0.0,79,0.00,,,0.00,WSDL version 430,2013-05-17 11:10:00,
2013-05-17 04:15:00,51.0,44.7,29.90,SSW,203,0.0,0.0,79,0.00,,,0.00,WSDL version 430,2013-05-17 11:15:00,
2013-05-17 04:20:00,50.9,44.5,29.90,SSW,203,0.0,0.0,78,0.00,,,0.00,WSDL version 430,2013-05-17 11:20:00,
2013-05-17 04:25:00,50.8,44.2,29.90,SSW,203,0.0,0.0,78,0.00,,,0.00,WSDL version 430,2013-05-17 11:25:00,
2013-05-17 04:30:00,50.6,43.9,29.91,SSW,203,0.0,0.0,78,0.00,,,0.00,WSDL version 430,2013-05-17 11:30:00,
2013-05-17 04:35:00,50.4,43.8,29.91,SSW,203,0.0,0.0,78,0.00,,,0.00,WSDL version 430,2013-05-17 11:35:00,
2013-05-17 04:40:00,50.2,43.6,29.91,SSW,203,0.0,0.0,78,0.00,,,0.00,WSDL version 430,2013-05-17 11:40:00,
2013-05-17 04:45:00,50.2,44.2,29.91,SSW,203,0.0,0.0,80,0.00,,,0.00,WSDL version 430,2013-05-17 11:45:00,
2013-05-17 04:50:00,50.2,44.2,29.91,SSW,203,0.0,0.0,80,0.00,,,0.00,WSDL version 430,2013-05-17 11:50:00,
2013-05-17 04:55:00,50.0,44.1,29.91,SSW,203,0.0,0.0,80,0.00,,,0.00,WSDL version 430,2013-05-17 11:55:00,
2013-05-17 05:00:00,50.0,44.3,29.91,SSW,203,0.0,0.0,81,0.00,,,0.00,WSDL version 430,2013-05-17 12:00:00,
2013-05-17 05:05:00,49.8,44.3,29.91,SSW,203,0.0,0.0,81,0.00,,,0.00,WSDL version 430,2013-05-17 12:05:00,
2013-05-17 05:10:00,49.9,44.6,29.91,SSW,203,0.0,0.0,82,0.00,,,0.00,WSDL version 430,2013-05-17 12:10:00,
2013-05-17 05:15:00,50.0,44.8,29.91,SSW,203,0.0,0.0,82,0.00,,,0.00,WSDL version 430,2013-05-17 12:15:00,
2013-05-17 05:20:00,50.0,44.9,29.91,SSW,203,0.0,0.0,83,0.00,,,0.00,WSDL version 430,2013-05-17 12:20:00,
2013-05-17 05:25:00,50.1,44.9,29.91,SSW,203,0.0,0.0,82,0.00,,,0.00,WSDL version 430,2013-05-17 12:25:00,
2013-05-17 05:30:00,50.0,44.7,29.91,SSW,203,0.0,0.0,81,0.00,,,0.00,WSDL version 430,2013-05-17 12:30:00,
2013-05-17 05:35:00,50.0,44.7,29.91,SSW,203,0.0,0.0,82,0.00,,,0.00,WSDL version 430,2013-05-17 12:35:00,
2013-05-17 05:40:00,50.0,44.4,29.91,SSW,203,0.0,0.0,81,0.00,,,0.00,WSDL version 430,2013-05-17 12:40:00,
2013-05-17 05:45:00,50.0,44.4,29.91,SSW,203,0.0,0.0,81,0.00,,,0.00,WSDL version 430,2013-05-17 12:45:00,
2013-05-17 05:50:00,50.0,44.4,29.91,SSW,203,0.0,0.0,81,0.00,,,0.00,WSDL version 430,2013-05-17 12:50:00,
2013-05-17 05:55:00,49.9,44.3,29.91,SSW,203,0.0,0.0,81,0.00,,,0.00,WSDL version 430,2013-05-17 12:55:00,
2013-05-17 06:00:00,49.6,44.1,29.91,SSW,203,0.0,0.0,81,0.00,,,0.00,WSDL version 430,2013-05-17 13:00:00,
2013-05-17 06:05:00,49.6,44.5,29.91,SSW,203,0.0,0.0,83,0.00,,,0.00,WSDL version 430,2013-05-17 13:05:00,
2013-05-17 06:10:00,49.8,45.2,29.91,SSW,203,0.0,0.0,86,0.00,,,0.00,WSDL version 430,2013-05-17 13:10:00,
2013-05-17 06:15:00,50.0,45.8,29.92,SSW,203,0.0,0.0,86,0.00,,,0.00,WSDL version 430,2013-05-17 13:15:00,
2013-05-17 06:20:00,50.0,45.6,29.92,SSW,203,0.0,0.0,84,0.00,,,0.00,WSDL version 430,2013-05-17 13:20:00,
2013-05-17 06:30:00,50.2,45.7,29.92,SSW,203,0.0,0.0,84,0.00,,,0.00,WSDL version 430,2013-05-17 13:30:00,
2013-05-17 06:35:00,50.2,45.6,29.92,SSW,203,0.0,0.0,83,0.00,,,0.00,WSDL version 430,2013-05-17 13:35:00,
2013-05-17 06:40:00,50.4,45.5,29.92,SSW,203,0.0,0.0,83,0.00,,,0.00,WSDL version 430,2013-05-17 13:40:00,
2013-05-17 06:45:00,50.5,45.6,29.92,SSW,203,0.0,0.0,82,0.00,,,0.00,WSDL version 430,2013-05-17 13:45:00,
2013-05-17 06:50:00,50.8,45.4,29.92,SSW,203,0.0,0.0,81,0.00,,,0.00,WSDL version 430,2013-05-17 13:50:00,
2013-05-17 06:55:00,51.1,45.5,29.93,SSW,203,0.0,0.0,81,0.00,,,0.00,WSDL version 430,2013-05-17 13:55:00,
2013-05-17 07:00:00,51.4,45.4,29.93,SSW,203,0.0,0.0,79,0.00,,,0.00,WSDL version 430,2013-05-17 14:00:00,
2013-05-17 07:05:00,51.8,45.3,29.93,SSW,203,0.0,0.0,78,0.00,,,0.00,WSDL version 430,2013-05-17 14:05:00,
2013-05-17 07:10:00,52.1,44.7,29.93,SSW,203,0.0,0.0,75,0.00,,,0.00,WSDL version 430,2013-05-17 14:10:00,
2013-05-17 07:15:00,52.4,44.8,29.93,SSW,203,0.0,0.0,75,0.00,,,0.00,WSDL version 430,2013-05-17 14:15:00,
2013-05-17 07:20:00,52.9,44.9,29.94,SSW,203,0.0,0.0,73,0.00,,,0.00,WSDL version 430,2013-05-17 14:20:00,
2013-05-17 07:25:00,53.8,45.1,29.94,SSW,203,0.0,0.0,72,0.00,,,0.00,WSDL version 430,2013-05-17 14:25:00,
2013-05-17 07:30:00,54.9,45.2,29.94,SSW,203,0.0,0.0,68,0.00,,,0.00,WSDL version 430,2013-05-17 14:30:00,
2013-05-17 07:35:00,55.9,45.3,29.94,SSW,203,0.0,0.0,66,0.00,,,0.00,WSDL version 430,2013-05-17 14:35:00,
2013-05-17 07:40:00,56.8,45.4,29.94,SSW,203,0.0,0.0,66,0.00,,,0.00,WSDL version 430,2013-05-17 14:40:00,
2013-05-17 07:45:00,57.6,44.5,29.94,SSW,203,0.0,0.0,60,0.00,,,0.00,WSDL version 430,2013-05-17 14:45:00,
2013-05-17 07:50:00,58.3,44.3,29.94,SSW,203,0.0,0.0,59,0.00,,,0.00,WSDL version 430,2013-05-17 14:50:00,
2013-05-17 07:55:00,58.9,43.6,29.94,SSW,203,0.0,0.0,57,0.00,,,0.00,WSDL version 430,2013-05-17 14:55:00,
2013-05-17 08:00:00,59.4,42.8,29.94,SSW,203,0.0,0.0,54,0.00,,,0.00,WSDL version 430,2013-05-17 15:00:00,
2013-05-17 08:05:00,60.0,42.9,29.94,SSW,203,0.0,0.0,52,0.00,,,0.00,WSDL version 430,2013-05-17 15:05:00,
2013-05-17 08:10:00,60.6,43.3,29.94,SSW,203,0.0,0.0,52,0.00,,,0.00,WSDL version 430,2013-05-17 15:10:00,
2013-05-17 08:15:00,61.4,43.0,29.94,SSW,203,0.0,0.0,50,0.00,,,0.00,WSDL version 430,2013-05-17 15:15:00,
2013-05-17 08:20:00,61.8,42.5,29.94,SSW,203,0.0,0.0,48,0.00,,,0.00,WSDL version 430,2013-05-17 15:20:00,
2013-05-17 08:25:00,62.3,42.9,29.94,SSW,203,0.0,0.0,49,0.00,,,0.00,WSDL version 430,2013-05-17 15:25:00,
2013-05-17 08:30:00,63.1,42.5,29.94,SSW,203,0.0,0.0,46,0.00,,,0.00,WSDL version 430,2013-05-17 15:30:00,
2013-05-17 08:35:00,63.2,42.2,29.94,SSW,203,0.0,0.0,47,0.00,,,0.00,WSDL version 430,2013-05-17 15:35:00,
2013-05-17 08:40:00,63.9,42.7,29.94,SSW,203,0.0,0.0,46,0.00,,,0.00,WSDL version 430,2013-05-17 15:40:00,
2013-05-17 08:45:00,64.5,42.6,29.94,SSW,203,0.0,0.0,44,0.00,,,0.00,WSDL version 430,2013-05-17 15:45:00,
2013-05-17 08:50:00,65.1,42.6,29.94,SSW,203,0.0,0.0,44,0.00,,,0.00,WSDL version 430,2013-05-17 15:50:00,
2013-05-17 08:55:00,65.2,42.9,29.94,SSW,203,0.0,0.0,44,0.00,,,0.00,WSDL version 430,2013-05-17 15:55:00,
2013-05-17 09:00:00,65.2,42.4,29.94,SSW,203,0.0,0.0,44,0.00,,,0.00,WSDL version 430,2013-05-17 16:00:00,
2013-05-17 09:05:00,65.4,42.3,29.94,SSW,203,0.0,0.0,43,0.00,,,0.00,WSDL version 430,2013-05-17 16:05:00,
2013-05-17 09:10:00,65.7,42.7,29.94,SSW,203,0.0,0.0,43,0.00,,,0.00,WSDL version 430,2013-05-17 16:10:00,
2013-05-17 09:15:00,66.0,41.4,29.94,SSW,203,0.0,0.0,41,0.00,,,0.00,WSDL version 430,2013-05-17 16:15:00,
2013-05-17 09:20:00,66.4,42.3,29.94,SSW,203,0.0,0.0,41,0.00,,,0.00,WSDL version 430,2013-05-17 16:20:00,
2013-05-17 09:25:00,66.4,41.4,29.94,SSW,203,0.0,0.0,40,0.00,,,0.00,WSDL version 430,2013-05-17 16:25:00,
2013-05-17 09:30:00,66.4,41.4,29.94,SSW,203,0.0,0.0,40,0.00,,,0.00,WSDL version 430,2013-05-17 16:30:00,
2013-05-17 09:35:00,67.3,42.7,29.94,SSW,203,0.0,0.0,40,0.00,,,0.00,WSDL version 430,2013-05-17 16:35:00,
2013-05-17 09:40:00,67.9,41.9,29.94,SSW,203,0.0,0.0,39,0.00,,,0.00,WSDL version 430,2013-05-17 16:40:00,
2013-05-17 09:45:00,68.2,41.9,29.94,SSW,203,0.0,0.0,38,0.00,,,0.00,WSDL version 430,2013-05-17 16:45:00,
2013-05-17 09:50:00,68.5,41.1,29.94,SSW,203,0.0,0.0,36,0.00,,,0.00,WSDL version 430,2013-05-17 16:50:00,
2013-05-17 09:55:00,68.8,41.2,29.94,SSW,203,0.0,0.0,37,0.00,,,0.00,WSDL version 430,2013-05-17 16:55:00,
2013-05-17 10:00:00,69.2,41.7,29.94,SSW,203,0.0,0.0,36,0.00,,,0.00,WSDL version 430,2013-05-17 17:00:00,
2013-05-17 10:05:00,69.4,41.2,29.94,SSW,203,0.0,0.0,36,0.00,,,0.00,WSDL version 430,2013-05-17 17:05:00,
2013-05-17 10:10:00,69.6,40.6,29.94,SSW,203,0.0,0.0,34,0.00,,,0.00,WSDL version 430,2013-05-17 17:10:00,
2013-05-17 10:15:00,70.1,40.9,29.94,SSW,203,0.0,0.0,35,0.00,,,0.00,WSDL version 430,2013-05-17 17:15:00,
2013-05-17 10:20:00,69.9,40.4,29.94,SSW,203,0.0,0.0,35,0.00,,,0.00,WSDL version 430,2013-05-17 17:20:00,
2013-05-17 10:25:00,70.6,42.0,29.94,SSW,203,0.0,0.0,34,0.00,,,0.00,WSDL version 430,2013-05-17 17:25:00,
2013-05-17 10:30:00,70.8,41.3,29.94,SSW,203,0.0,0.0,35,0.00,,,0.00,WSDL version 430,2013-05-17 17:30:00,
2013-05-17 10:35:00,71.2,41.4,29.94,SSW,203,0.0,0.0,34,0.00,,,0.00,WSDL version 430,2013-05-17 17:35:00,
2013-05-17 10:40:00,71.0,40.7,29.94,SSW,203,0.0,0.0,33,0.00,,,0.00,WSDL version 430,2013-05-17 17:40:00,
2013-05-17 10:45:00,71.2,41.3,29.94,SSW,203,0.0,0.0,33,0.00,,,0.00,WSDL version 430,2013-05-17 17:45:00,
2013-05-17 10:50:00,71.6,41.2,29.95,SSW,203,0.0,0.0,33,0.00,,,0.00,WSDL version 430,2013-05-17 17:50:00,
2013-05-17 10:55:00,72.0,41.1,29.95,SSW,203,0.0,0.0,32,0.00,,,0.00,WSDL version 430,2013-05-17 17:55:00,
2013-05-17 11:00:00,72.3,42.3,29.95,SSW,203,0.0,0.0,34,0.00,,,0.00,WSDL version 430,2013-05-17 18:00:00,
2013-05-17 11:05:00,72.7,41.8,29.95,SSW,203,0.0,0.0,33,0.00,,,0.00,WSDL version 430,2013-05-17 18:05:00,
2013-05-17 11:10:00,72.9,41.8,29.95,SSW,203,0.0,0.0,33,0.00,,,0.00,WSDL version 430,2013-05-17 18:10:00,
2013-05-17 11:15:00,73.1,42.2,29.95,SSW,203,0.0,0.0,33,0.00,,,0.00,WSDL version 430,2013-05-17 18:15:00,
2013-05-17 11:20:00,73.1,42.3,29.95,SSW,203,0.0,0.0,33,0.00,,,0.00,WSDL version 430,2013-05-17 18:20:00,
2013-05-17 11:25:00,73.5,43.0,29.95,SSW,203,0.0,0.0,33,0.00,,,0.00,WSDL version 430,2013-05-17 18:25:00,
2013-05-17 11:30:00,74.0,43.4,29.95,SSW,203,0.0,0.0,33,0.00,,,0.00,WSDL version 430,2013-05-17 18:30:00,
2013-05-17 11:35:00,74.4,43.6,29.95,SSW,203,0.0,0.0,34,0.00,,,0.00,WSDL version 430,2013-05-17 18:35:00,
2013-05-17 11:40:00,74.4,43.6,29.95,SSW,203,0.0,0.0,34,0.00,,,0.00,WSDL version 430,2013-05-17 18:40:00,
2013-05-17 11:45:00,73.6,42.3,29.95,SSW,203,0.0,0.0,33,0.00,,,0.00,WSDL version 430,2013-05-17 18:45:00,
2013-05-17 11:50:00,73.1,42.8,29.95,SSW,203,0.0,0.0,33,0.00,,,0.00,WSDL version 430,2013-05-17 18:50:00,
2013-05-17 11:55:00,74.1,43.5,29.95,SSW,203,0.0,0.0,33,0.00,,,0.00,WSDL version 430,2013-05-17 18:55:00,
2013-05-17 12:00:00,74.3,43.4,29.95,SSW,203,0.0,0.0,33,0.00,,,0.00,WSDL version 430,2013-05-17 19:00:00,
2013-05-17 12:05:00,74.5,43.2,29.95,SSW,203,0.0,0.0,32,0.00,,,0.00,WSDL version 430,2013-05-17 19:05:00,
2013-05-17 12:10:00,75.0,44.0,29.95,SSW,203,0.0,0.0,33,0.00,,,0.00,WSDL version 430,2013-05-17 19:10:00,
2013-05-17 12:15:00,75.6,43.5,29.95,SSW,203,0.0,0.0,31,0.00,,,0.00,WSDL version 430,2013-05-17 19:15:00,
2013-05-17 12:20:00,75.9,43.8,29.95,SSW,203,0.0,0.0,31,0.00,,,0.00,WSDL version 430,2013-05-17 19:20:00,
2013-05-17 12:25:00,74.8,42.8,29.95,SSW,203,0.0,0.0,33,0.00,,,0.00,WSDL version 430,2013-05-17 19:25:00,
2013-05-17 12:30:00,74.6,42.7,29.95,SSW,203,0.0,0.0,32,0.00,,,0.00,WSDL version 430,2013-05-17 19:30:00,
2013-05-17 12:35:00,73.8,42.2,29.95,SSW,203,0.0,0.0,32,0.00,,,0.00,WSDL version 430,2013-05-17 19:35:00,
2013-05-17 12:40:00,75.2,43.3,29.95,SSW,203,0.0,0.0,32,0.00,,,0.00,WSDL version 430,2013-05-17 19:40:00,
2013-05-17 12:45:00,74.7,42.1,29.95,SSW,203,0.0,0.0,31,0.00,,,0.00,WSDL version 430,2013-05-17 19:45:00,
2013-05-17 12:50:00,72.7,41.2,29.95,SSW,203,0.0,0.0,33,0.00,,,0.00,WSDL version 430,2013-05-17 19:50:00,
2013-05-17 12:55:00,72.6,41.5,29.95,SSW,203,0.0,0.0,32,0.00,,,0.00,WSDL version 430,2013-05-17 19:55:00,
2013-05-17 13:00:00,73.6,42.2,29.94,SSW,203,0.0,0.0,32,0.00,,,0.00,WSDL version 430,2013-05-17 20:00:00,
2013-05-17 13:05:00,74.9,43.1,29.94,SSW,203,0.0,0.0,32,0.00,,,0.00,WSDL version 430,2013-05-17 20:05:00,
2013-05-17 13:10:00,76.1,43.3,29.94,SSW,203,0.0,0.0,31,0.00,,,0.00,WSDL version 430,2013-05-17 20:10:00,
2013-05-17 13:15:00,75.7,43.0,29.94,SSW,203,0.0,0.0,31,0.00,,,0.00,WSDL version 430,2013-05-17 20:15:00,
2013-05-17 13:20:00,76.6,43.7,29.94,SSW,203,0.0,0.0,31,0.00,,,0.00,WSDL version 430,2013-05-17 20:20:00,
2013-05-17 13:25:00,76.8,43.4,29.94,SSW,203,0.0,0.0,31,0.00,,,0.00,WSDL version 430,2013-05-17 20:25:00,
2013-05-17 13:30:00,77.0,43.7,29.94,SSW,203,0.0,0.0,30,0.00,,,0.00,WSDL version 430,2013-05-17 20:30:00,
2013-05-17 13:35:00,77.6,42.7,29.94,SSW,203,0.0,0.0,28,0.00,,,0.00,WSDL version 430,2013-05-17 20:35:00,
2013-05-17 13:40:00,77.4,41.3,29.94,SSW,203,0.0,0.0,29,0.00,,,0.00,WSDL version 430,2013-05-17 20:40:00,
2013-05-17 13:45:00,77.5,41.2,29.94,SSW,203,0.0,0.0,27,0.00,,,0.00,WSDL version 430,2013-05-17 20:45:00,
2013-05-17 13:50:00,77.9,41.0,29.94,SSW,203,0.0,0.0,26,0.00,,,0.00,WSDL version 430,2013-05-17 20:50:00,
2013-05-17 13:55:00,77.5,39.6,29.94,SSW,203,0.0,0.0,26,0.00,,,0.00,WSDL version 430,2013-05-17 20:55:00,
2013-05-17 14:00:00,76.1,39.2,29.94,SSW,203,0.0,0.0,27,0.00,,,0.00,WSDL version 430,2013-05-17 21:00:00,
2013-05-17 14:05:00,76.5,40.8,29.94,SSW,203,0.0,0.0,28,0.00,,,0.00,WSDL version 430,2013-05-17 21:05:00,
2013-05-17 14:10:00,76.1,39.7,29.94,SSW,203,0.0,0.0,27,0.00,,,0.00,WSDL version 430,2013-05-17 21:10:00,
2013-05-17 14:15:00,77.0,40.1,29.94,SSW,203,0.0,0.0,25,0.00,,,0.00,WSDL version 430,2013-05-17 21:15:00,
2013-05-17 14:20:00,77.2,38.7,29.94,SSW,203,0.0,0.0,25,0.00,,,0.00,WSDL version 430,2013-05-17 21:20:00,
2013-05-17 14:25:00,77.2,38.2,29.93,SSW,203,0.0,0.0,23,0.00,,,0.00,WSDL version 430,2013-05-17 21:25:00,
2013-05-17 14:30:00,76.9,36.8,29.94,SSW,203,0.0,0.0,24,0.00,,,0.00,WSDL version 430,2013-05-17 21:30:00,
2013-05-17 14:35:00,77.1,37.5,29.93,SSW,203,0.0,0.0,24,0.00,,,0.00,WSDL version 430,2013-05-17 21:35:00,
2013-05-17 14:40:00,77.3,38.3,29.93,SSW,203,0.0,0.0,25,0.00,,,0.00,WSDL version 430,2013-05-17 21:40:00,
2013-05-17 14:45:00,77.5,37.7,29.93,SSW,203,0.0,0.0,23,0.00,,,0.00,WSDL version 430,2013-05-17 21:45:00,
2013-05-17 14:50:00,77.2,37.4,29.93,SSW,203,0.0,0.0,24,0.00,,,0.00,WSDL version 430,2013-05-17 21:50:00,
2013-05-17 14:55:00,77.2,37.0,29.93,SSW,203,0.0,0.0,23,0.00,,,0.00,WSDL version 430,2013-05-17 21:55:00,
2013-05-17 15:00:00,77.7,37.0,29.93,SSW,203,0.0,0.0,22,0.00,,,0.00,WSDL version 430,2013-05-17 22:00:00,
2013-05-17 15:05:00,77.3,35.8,29.93,SSW,203,0.0,0.0,22,0.00,,,0.00,WSDL version 430,2013-05-17 22:05:00,
2013-05-17 15:10:00,77.2,35.4,29.93,SSW,203,0.0,0.0,22,0.00,,,0.00,WSDL version 430,2013-05-17 22:10:00,
2013-05-17 15:15:00,76.8,34.7,29.93,SSW,203,0.0,0.0,22,0.00,,,0.00,WSDL version 430,2013-05-17 22:15:00,
2013-05-17 15:20:00,77.1,35.4,29.93,SSW,203,0.0,0.0,22,0.00,,,0.00,WSDL version 430,2013-05-17 22:20:00,
2013-05-17 15:25:00,77.6,35.8,29.92,SSW,203,0.0,0.0,22,0.00,,,0.00,WSDL version 430,2013-05-17 22:25:00,
2013-05-17 15:30:00,77.2,35.2,29.92,SSW,203,0.0,0.0,22,0.00,,,0.00,WSDL version 430,2013-05-17 22:30:00,
2013-05-17 15:35:00,77.2,35.2,29.92,SSW,203,0.0,0.0,22,0.00,,,0.00,WSDL version 430,2013-05-17 22:35:00,
2013-05-17 15:40:00,77.6,35.0,29.92,SSW,203,0.0,0.0,22,0.00,,,0.00,WSDL version 430,2013-05-17 22:40:00,
2013-05-17 15:45:00,77.4,35.2,29.92,SSW,203,0.0,0.0,21,0.00,,,0.00,WSDL version 430,2013-05-17 22:45:00,
2013-05-17 15:50:00,77.2,35.0,29.93,SSW,203,0.0,0.0,22,0.00,,,0.00,WSDL version 430,2013-05-17 22:50:00,
2013-05-17 15:55:00,76.9,34.8,29.92,SSW,203,0.0,0.0,22,0.00,,,0.00,WSDL version 430,2013-05-17 22:55:00,
2013-05-17 16:00:00,77.0,34.1,29.92,SSW,203,0.0,0.0,21,0.00,,,0.00,WSDL version 430,2013-05-17 23:00:00,
2013-05-17 16:05:00,77.0,34.3,29.93,SSW,203,0.0,0.0,21,0.00,,,0.00,WSDL version 430,2013-05-17 23:05:00,
2013-05-17 16:10:00,76.8,34.7,29.92,SSW,203,0.0,0.0,22,0.00,,,0.00,WSDL version 430,2013-05-17 23:10:00,
2013-05-17 16:15:00,76.6,35.0,29.92,SSW,203,0.0,0.0,22,0.00,,,0.00,WSDL version 430,2013-05-17 23:15:00,
2013-05-17 16:20:00,77.0,34.3,29.93,SSW,203,0.0,0.0,21,0.00,,,0.00,WSDL version 430,2013-05-17 23:20:00,
2013-05-17 16:25:00,76.9,34.2,29.93,SSW,203,0.0,0.0,22,0.00,,,0.00,WSDL version 430,2013-05-17 23:25:00,
2013-05-17 16:30:00,76.9,34.1,29.92,SSW,203,0.0,0.0,21,0.00,,,0.00,WSDL version 430,2013-05-17 23:30:00,
2013-05-17 16:35:00,76.8,33.9,29.93,SSW,203,0.0,0.0,21,0.00,,,0.00,WSDL version 430,2013-05-17 23:35:00,
2013-05-17 16:40:00,76.5,33.7,29.93,SSW,203,0.0,0.0,21,0.00,,,0.00,WSDL version 430,2013-05-17 23:40:00,
2013-05-17 16:45:00,76.3,33.6,29.93,SSW,203,0.0,0.0,21,0.00,,,0.00,WSDL version 430,2013-05-17 23:45:00,
2013-05-17 16:50:00,76.4,33.6,29.93,SSW,203,0.0,0.0,21,0.00,,,0.00,WSDL version 430,2013-05-17 23:50:00,
2013-05-17 16:55:00,76.6,33.8,29.93,SSW,203,0.0,0.0,21,0.00,,,0.00,WSDL version 430,2013-05-17 23:55:00,
2013-05-17 17:00:00,76.6,33.8,29.93,SSW,203,0.0,0.0,21,0.00,,,0.00,WSDL version 430,2013-05-18 00:00:00,
2013-05-17 17:05:00,76.4,33.6,29.93,SSW,203,0.0,0.0,21,0.00,,,0.00,WSDL version 430,2013-05-18 00:05:00,
2013-05-17 17:10:00,76.2,33.4,29.93,SSW,203,0.0,0.0,21,0.00,,,0.00,WSDL version 430,2013-05-18 00:10:00,
2013-05-17 17:15:00,76.4,33.6,29.93,SSW,203,0.0,0.0,21,0.00,,,0.00,WSDL version 430,2013-05-18 00:15:00,
2013-05-17 17:20:00,76.2,32.7,29.93,SSW,203,0.0,0.0,21,0.00,,,0.00,WSDL version 430,2013-05-18 00:20:00,
2013-05-17 17:25:00,75.9,33.0,29.92,SSW,203,0.0,0.0,21,0.00,,,0.00,WSDL version 430,2013-05-18 00:25:00,
2013-05-17 17:30:00,75.7,33.1,29.92,SSW,203,0.0,0.0,21,0.00,,,0.00,WSDL version 430,2013-05-18 00:30:00,
2013-05-17 17:35:00,75.8,33.1,29.92,SSW,203,0.0,0.0,21,0.00,,,0.00,WSDL version 430,2013-05-18 00:35:00,
2013-05-17 17:40:00,75.6,33.0,29.92,SSW,203,0.0,0.0,21,0.00,,,0.00,WSDL version 430,2013-05-18 00:40:00,
2013-05-17 17:45:00,75.5,32.8,29.92,SSW,203,0.0,0.0,21,0.00,,,0.00,WSDL version 430,2013-05-18 00:45:00,
2013-05-17 17:50:00,75.3,32.7,29.92,SSW,203,0.0,0.0,21,0.00,,,0.00,WSDL version 430,2013-05-18 00:50:00,
2013-05-17 17:55:00,75.2,32.6,29.92,SSW,203,0.0,0.0,21,0.00,,,0.00,WSDL version 430,2013-05-18 00:55:00,
2013-05-17 18:00:00,75.0,32.5,29.93,SSW,203,0.0,0.0,21,0.00,,,0.00,WSDL version 430,2013-05-18 01:00:00,
2013-05-17 18:05:00,74.5,32.0,29.93,SSW,203,0.0,0.0,21,0.00,,,0.00,WSDL version 430,2013-05-18 01:05:00,
2013-05-17 18:10:00,74.5,32.1,29.93,SSW,203,0.0,0.0,21,0.00,,,0.00,WSDL version 430,2013-05-18 01:10:00,
2013-05-17 18:15:00,74.5,32.1,29.93,SSW,203,0.0,0.0,21,0.00,,,0.00,WSDL version 430,2013-05-18 01:15:00,
2013-05-17 18:20:00,74.6,32.8,29.93,SSW,203,0.0,0.0,22,0.00,,,0.00,WSDL version 430,2013-05-18 01:20:00,
2013-05-17 18:25:00,74.4,33.1,29.93,SSW,203,0.0,0.0,22,0.00,,,0.00,WSDL version 430,2013-05-18 01:25:00,
2013-05-17 18:30:00,74.1,32.9,29.93,SSW,203,0.0,0.0,22,0.00,,,0.00,WSDL version 430,2013-05-18 01:30:00,
2013-05-17 18:35:00,73.9,32.7,29.93,SSW,203,0.0,0.0,22,0.00,,,0.00,WSDL version 430,2013-05-18 01:35:00,
2013-05-17 18:40:00,73.6,32.5,29.93,SSW,203,0.0,0.0,22,0.00,,,0.00,WSDL version 430,2013-05-18 01:40:00,
2013-05-17 18:45:00,73.4,32.3,29.93,SSW,203,0.0,0.0,22,0.00,,,0.00,WSDL version 430,2013-05-18 01:45:00,
2013-05-17 18:50:00,73.3,32.2,29.93,SSW,203,0.0,0.0,22,0.00,,,0.00,WSDL version 430,2013-05-18 01:50:00,
2013-05-17 18:55:00,73.1,32.0,29.94,SSW,203,0.0,0.0,22,0.00,,,0.00,WSDL version 430,2013-05-18 01:55:00,
2013-05-17 19:00:00,72.9,31.8,29.94,SSW,203,0.0,0.0,22,0.00,,,0.00,WSDL version 430,2013-05-18 02:00:00,
2013-05-17 19:05:00,72.6,32.3,29.94,SSW,203,0.0,0.0,23,0.00,,,0.00,WSDL version 430,2013-05-18 02:05:00,
2013-05-17 19:10:00,72.1,32.0,29.94,SSW,203,0.0,0.0,22,0.00,,,0.00,WSDL version 430,2013-05-18 02:10:00,
2013-05-17 19:15:00,71.5,31.2,29.94,SSW,203,0.0,0.0,23,0.00,,,0.00,WSDL version 430,2013-05-18 02:15:00,
2013-05-17 19:20:00,71.0,31.3,29.94,SSW,203,0.0,0.0,23,0.00,,,0.00,WSDL version 430,2013-05-18 02:20:00,
2013-05-17 19:25:00,70.4,30.9,29.94,SSW,203,0.0,0.0,23,0.00,,,0.00,WSDL version 430,2013-05-18 02:25:00,
2013-05-17 19:30:00,69.7,30.3,29.95,SSW,203,0.0,0.0,23,0.00,,,0.00,WSDL version 430,2013-05-18 02:30:00,
2013-05-17 19:35:00,69.1,29.7,29.95,SSW,203,0.0,0.0,23,0.00,,,0.00,WSDL version 430,2013-05-18 02:35:00,
2013-05-17 19:40:00,68.1,30.0,29.95,SSW,203,0.0,0.0,24,0.00,,,0.00,WSDL version 430,2013-05-18 02:40:00,
2013-05-17 19:45:00,67.4,29.4,29.95,SSW,203,0.0,0.0,24,0.00,,,0.00,WSDL version 430,2013-05-18 02:45:00,
2013-05-17 19:50:00,66.7,28.8,29.96,SSW,203,0.0,0.0,24,0.00,,,0.00,WSDL version 430,2013-05-18 02:50:00,
2013-05-17 19:55:00,66.2,29.3,29.96,SSW,203,0.0,0.0,25,0.00,,,0.00,WSDL version 430,2013-05-18 02:55:00,
2013-05-17 20:00:00,65.5,28.8,29.96,SSW,203,0.0,0.0,25,0.00,,,0.00,WSDL version 430,2013-05-18 03:00:00,
2013-05-17 20:05:00,64.9,28.6,29.96,SSW,203,0.0,0.0,26,0.00,,,0.00,WSDL version 430,2013-05-18 03:05:00,
2013-05-17 20:10:00,64.4,28.8,29.97,SSW,203,0.0,0.0,26,0.00,,,0.00,WSDL version 430,2013-05-18 03:10:00,
2013-05-17 20:15:00,63.9,28.5,29.96,SSW,203,0.0,0.0,27,0.00,,,0.00,WSDL version 430,2013-05-18 03:15:00,
2013-05-17 20:20:00,63.4,28.9,29.97,SSW,203,0.0,0.0,27,0.00,,,0.00,WSDL version 430,2013-05-18 03:20:00,
2013-05-17 20:25:00,63.0,29.0,29.97,SSW,203,0.0,0.0,28,0.00,,,0.00,WSDL version 430,2013-05-18 03:25:00,
2013-05-17 20:30:00,62.5,29.3,29.97,SSW,203,0.0,0.0,29,0.00,,,0.00,WSDL version 430,2013-05-18 03:30:00,
2013-05-17 20:35:00,62.1,29.5,29.97,SSW,203,0.0,0.0,29,0.00,,,0.00,WSDL version 430,2013-05-18 03:35:00,
2013-05-17 20:40:00,61.8,29.9,29.97,SSW,203,0.0,0.0,30,0.00,,,0.00,WSDL version 430,2013-05-18 03:40:00,
2013-05-17 20:45:00,61.6,30.0,29.97,SSW,203,0.0,0.0,30,0.00,,,0.00,WSDL version 430,2013-05-18 03:45:00,
2013-05-17 20:50:00,61.4,30.5,29.98,SSW,203,0.0,0.0,31,0.00,,,0.00,WSDL version 430,2013-05-18 03:50:00,
2013-05-17 20:55:00,61.1,30.8,29.98,SSW,203,0.0,0.0,32,0.00,,,0.00,WSDL version 430,2013-05-18 03:55:00,
2013-05-17 21:00:00,60.9,30.9,29.98,SSW,203,0.0,0.0,32,0.00,,,0.00,WSDL version 430,2013-05-18 04:00:00,
2013-05-17 21:05:00,60.7,31.1,29.98,SSW,203,0.0,0.0,33,0.00,,,0.00,WSDL version 430,2013-05-18 04:05:00,
2013-05-17 21:10:00,60.5,31.3,29.98,SSW,203,0.0,0.0,33,0.00,,,0.00,WSDL version 430,2013-05-18 04:10:00,
2013-05-17 21:15:00,60.2,31.2,29.99,SSW,203,0.0,0.0,33,0.00,,,0.00,WSDL version 430,2013-05-18 04:15:00,
2013-05-17 21:20:00,60.0,31.6,29.99,SSW,203,0.0,0.0,34,0.00,,,0.00,WSDL version 430,2013-05-18 04:20:00,
2013-05-17 21:25:00,59.8,31.4,29.99,SSW,203,0.0,0.0,34,0.00,,,0.00,WSDL version 430,2013-05-18 04:25:00,
2013-05-17 21:30:00,59.4,31.0,29.99,SSW,203,0.0,0.0,34,0.00,,,0.00,WSDL version 430,2013-05-18 04:30:00,
2013-05-17 21:35:00,59.1,30.8,29.99,SSW,203,0.0,0.0,34,0.00,,,0.00,WSDL version 430,2013-05-18 04:35:00,
2013-05-17 21:40:00,58.9,31.0,29.99,SSW,203,0.0,0.0,35,0.00,,,0.00,WSDL version 430,2013-05-18 04:40:00,
2013-05-17 21:45:00,58.5,31.0,29.99,SSW,203,0.0,0.0,35,0.00,,,0.00,WSDL version 430,2013-05-18 04:45:00,
2013-05-17 21:50:00,58.4,30.8,30.00,SSW,203,0.0,0.0,35,0.00,,,0.00,WSDL version 430,2013-05-18 04:50:00,
2013-05-17 21:55:00,58.1,30.6,30.00,SSW,203,0.0,0.0,35,0.00,,,0.00,WSDL version 430,2013-05-18 04:55:00,
2013-05-17 22:00:00,57.9,30.6,30.00,SSW,203,0.0,0.0,35,0.00,,,0.00,WSDL version 430,2013-05-18 05:00:00,
2013-05-17 22:05:00,57.7,31.0,30.00,SSW,203,0.0,0.0,36,0.00,,,0.00,WSDL version 430,2013-05-18 05:05:00,
2013-05-17 22:10:00,57.6,30.8,30.00,SSW,203,0.0,0.0,36,0.00,,,0.00,WSDL version 430,2013-05-18 05:10:00,
2013-05-17 22:15:00,57.5,30.9,30.00,SSW,203,0.0,0.0,37,0.00,,,0.00,WSDL version 430,2013-05-18 05:15:00,
2013-05-17 22:20:00,57.4,31.3,30.00,SSW,203,0.0,0.0,37,0.00,,,0.00,WSDL version 430,2013-05-18 05:20:00,
2013-05-17 22:25:00,57.2,31.7,30.00,SSW,203,0.0,0.0,38,0.00,,,0.00,WSDL version 430,2013-05-18 05:25:00,
2013-05-17 22:30:00,57.1,32.1,30.00,SSW,203,0.0,0.0,39,0.00,,,0.00,WSDL version 430,2013-05-18 05:30:00,
2013-05-17 22:35:00,56.8,32.2,30.00,SSW,203,0.0,0.0,39,0.00,,,0.00,WSDL version 430,2013-05-18 05:35:00,
2013-05-17 22:40:00,56.7,32.1,30.00,SSW,203,0.0,0.0,39,0.00,,,0.00,WSDL version 430,2013-05-18 05:40:00,
2013-05-17 22:45:00,56.4,32.2,30.00,SSW,203,0.0,0.0,40,0.00,,,0.00,WSDL version 430,2013-05-18 05:45:00,
2013-05-17 22:50:00,56.3,31.9,30.00,SSW,203,0.0,0.0,40,0.00,,,0.00,WSDL version 430,2013-05-18 05:50:00,
2013-05-17 22:55:00,56.1,32.1,30.00,SSW,203,0.0,0.0,40,0.00,,,0.00,WSDL version 430,2013-05-18 05:55:00,
2013-05-17 23:00:00,56.0,32.5,30.00,SSW,203,0.0,0.0,41,0.00,,,0.00,WSDL version 430,2013-05-18 06:00:00,
2013-05-17 23:05:00,55.9,32.6,30.00,SSW,203,0.0,0.0,42,0.00,,,0.00,WSDL version 430,2013-05-18 06:05:00,
2013-05-17 23:10:00,55.8,33.0,30.00,SSW,203,0.0,0.0,42,0.00,,,0.00,WSDL version 430,2013-05-18 06:10:00,
2013-05-17 23:15:00,55.8,33.3,30.00,SSW,203,0.0,0.0,43,0.00,,,0.00,WSDL version 430,2013-05-18 06:15:00,
2013-05-17 23:20:00,55.7,33.0,29.99,SSW,203,0.0,0.0,42,0.00,,,0.00,WSDL version 430,2013-05-18 06:20:00,
2013-05-17 23:25:00,55.5,32.7,29.99,SSW,203,0.0,0.0,41,0.00,,,0.00,WSDL version 430,2013-05-18 06:25:00,
2013-05-17 23:30:00,55.2,32.3,29.99,SSW,203,0.0,0.0,42,0.00,,,0.00,WSDL version 430,2013-05-18 06:30:00,
2013-05-17 23:35:00,54.8,32.1,29.99,SSW,203,0.0,0.0,42,0.00,,,0.00,WSDL version 430,2013-05-18 06:35:00,
2013-05-17 23:40:00,54.7,32.6,29.99,SSW,203,0.0,0.0,44,0.00,,,0.00,WSDL version 430,2013-05-18 06:40:00,
2013-05-17 23:45:00,54.7,32.6,29.99,SSW,203,0.0,0.0,43,0.00,,,0.00,WSDL version 430,2013-05-18 06:45:00,
2013-05-17 23:50:00,54.5,33.1,29.99,SSW,203,0.0,0.0,45,0.00,,,0.00,WSDL version 430,2013-05-18 06:50:00,
2013-05-17 23:55:00,54.5,33.2,29.99,SSW,203,0.0,0.0,44,0.00,,,0.00,WSDL version 430,2013-05-18 06:55:00,